Location: Anan
(43.3550°N, 0.8171°E)
Time: 12:29:41
(UTC+00:00)

Cosmos 1898 Rocket - Pass Details

Date: 14 May 2026
Orbit: 750 x 778 km, 74.0° (Epoch: 8 June)

Event Time Altitude Azimuth Distance (km) Brightness Sun altitude
Rises 23:35:22 0° 335° (NNW) 3,215 7.8 -27.7°
Reaches altitude 10° 23:37:46 10° 332° (NNW) 2,290 6.8 -27.7°
Enters shadow 23:42:14 54° 284° (WNW) 924 3.9 -27.8°
